Weather History for Spirit of St Louis, MO

Change the Weather History Date:

Friday, April 12, 2013

  Actual Average Record
Temperature  
Mean Temperature 40 °F -  
Max Temperature 45 °F 65 °F 82 °F (2006)
Min Temperature 36 °F 42 °F 30 °F (2007)
Degree Days  
Heating Degree Days 24    
Moisture  
Dew Point 30 °F    
Average Humidity 64    
Maximum Humidity 73    
Minimum Humidity 56    
Precipitation  
Precipitation 0.00 in - - ()
Sea Level Pressure  
Sea Level Pressure 29.89 in    
Wind  
Wind Speed 9 mph (WSW)    
Max Wind Speed 18 mph    
Max Gust Speed 24 mph    
Visibility 10 miles    
Events      
Averages and records for this station are not official NWS values.
T = Trace of Precipitation, MM = Missing Value Source: NWS Daily Summary

Daily Weather History Graph

Daily Weather History Graph

Search for Another Location

Airport:

Trip Planner

Search our weather history database for the weather conditions in past years. The results will help you decide how hot, cold, wet, or windy it might be!

Date:

Astronomy

Apr. 12, 2013 Rise Set
Actual Time 6:30 AM CDT 7:36 PM CDT
Civil Twilight 6:03 AM CDT 8:04 PM CDT
Nautical Twilight 5:30 AM CDT 8:36 PM CDT
Astronomical Twilight 4:56 AM CDT 9:10 PM CDT
Moon 7:41 AM CDT (4/12) 10:06 PM CDT (4/12)
Length of Visible Light 14h 01m
Length of Day
13h 06m
Waxing Crescent, 5% of the Moon is Illuminated
Apr 12
Waxing Crescent
Apr 18
First Quarter
Apr 25
Full
May 2
Last Quarter
May 9
New

Hourly Weather History & Observations

Time (CDT) Temp. Windchill Dew Point Humidity Pressure Visibility Wind Dir Wind Speed Gust Speed Precip Events Conditions
12:54 AM 41.0 °F 38.0 °F 30.9 °F 67% 29.76 in 10.0 mi SSW 4.6 mph - N/A   Overcast
1:54 AM 41.0 °F 37.1 °F 30.9 °F 67% 29.75 in 10.0 mi WSW 5.8 mph - N/A   Overcast
2:54 AM 39.9 °F 32.9 °F 30.0 °F 68% 29.75 in 10.0 mi WSW 11.5 mph 18.4 mph N/A   Scattered Clouds
3:54 AM 39.0 °F 34.0 °F 30.0 °F 70% 29.75 in 10.0 mi WSW 6.9 mph - N/A   Mostly Cloudy
4:54 AM 37.0 °F 31.6 °F 28.9 °F 73% 29.76 in 10.0 mi WSW 6.9 mph - N/A   Clear
5:54 AM 37.0 °F 31.0 °F 28.9 °F 73% 29.77 in 10.0 mi SW 8.1 mph - N/A   Partly Cloudy
6:54 AM 36.0 °F 29.0 °F 28.0 °F 73% 29.80 in 10.0 mi WSW 9.2 mph - N/A   Partly Cloudy
7:54 AM 39.0 °F 32.3 °F 28.0 °F 65% 29.81 in 10.0 mi WSW 10.4 mph - N/A   Partly Cloudy
8:54 AM 41.0 °F 34.3 °F 28.0 °F 60% 29.82 in 10.0 mi West 11.5 mph 20.7 mph N/A   Unknown
9:54 AM 41.0 °F 33.1 °F 28.0 °F 60% 29.84 in 10.0 mi West 15.0 mph 23.0 mph N/A   Overcast
10:54 AM 42.1 °F 34.5 °F 28.0 °F 58% 29.86 in 10.0 mi West 15.0 mph 24.2 mph N/A   Overcast
11:54 AM 42.1 °F 34.9 °F 28.9 °F 60% 29.89 in 10.0 mi West 13.8 mph 23.0 mph N/A   Overcast
12:54 PM 43.0 °F 35.4 °F 28.9 °F 58% 29.91 in 10.0 mi WSW 16.1 mph 23.0 mph N/A   Overcast
1:54 PM 44.1 °F 36.2 °F 30.0 °F 58% 29.92 in 10.0 mi WSW 18.4 mph 24.2 mph N/A   Overcast
2:54 PM 44.1 °F 36.8 °F 30.0 °F 58% 29.94 in 10.0 mi West 16.1 mph 20.7 mph N/A   Overcast
3:54 PM 44.1 °F 37.7 °F 30.0 °F 58% 29.94 in 10.0 mi West 12.7 mph - N/A   Overcast
4:54 PM 44.1 °F 37.4 °F 30.9 °F 60% 29.95 in 10.0 mi West 13.8 mph - N/A   Overcast
5:54 PM 45.0 °F 38.2 °F 30.0 °F 56% 29.97 in 10.0 mi West 15.0 mph 19.6 mph N/A   Overcast
6:54 PM 44.1 °F 38.1 °F 30.0 °F 58% 29.99 in 10.0 mi West 11.5 mph - N/A   Overcast
7:54 PM 43.0 °F 39.5 °F 30.9 °F 62% 29.99 in 10.0 mi West 5.8 mph - N/A   Overcast
8:54 PM 43.0 °F 39.5 °F 30.9 °F 62% 30.00 in 10.0 mi West 5.8 mph - N/A   Overcast
9:54 PM 42.1 °F 40.2 °F 32.0 °F 67% 30.01 in 10.0 mi SW 3.5 mph - N/A   Overcast
10:54 PM 41.0 °F 38.0 °F 30.9 °F 67% 30.02 in 10.0 mi South 4.6 mph - N/A   Mostly Cloudy
11:54 PM 37.9 °F - 30.0 °F 73% 30.04 in 10.0 mi Calm Calm - N/A   Clear